Вернуться в каталог

STARLINK-34686

АктивенСвязьVLEO
NORAD 65087·PAYLOAD·🇺🇸 United States

Запущен Aug 4, 2025 с Cape Canaveral Space Force Station

Loading…

Ближайшие Пролёты (ближайшие 24 часа)

TLE

СвежийSource: CelesTrak SupGP

Эпоха: Sep 14, 2026, 20:51 UTC

1 65087C 25167K   26257.86923611  .00046245  00000+0  14871-2 0  2575
2 65087  53.1569 228.0914 0001345  93.7066 204.7215 15.31679407    12

Отслеживайте STARLINK-34686 в реальном времени с AllMySat

Download on the App Store